Regional Weather Roundup
Issued by NWS Wilmington, NC

Home | Current Version | Previous Version | Text Only | Print | Product List | Glossary On
Versions: 1 2 3 4 5 6 7 8 9 10 11 12 13 14 15 16 17 18 19 20 21 22 23 24 25 26 27 28 29 30 31 32 33 34 35 36 37 38 39 40 41 42 43 44 45 46 47 48 49 50
000
ASUS42 KILM 270313
RWRILM
RWRILM
REGIONAL HOURLY WEATHER ROUNDUP
NATIONAL WEATHER SERVICE WILMINGTON NC
1100 PM EDT THU APR 26 2018

NOTE: "FAIR" INDICATES FEW OR NO CLOUDS BELOW 12,000 FEET WITH NO
SIGNIFICANT WEATHER AND/OR OBSTRUCTIONS TO VISIBILITY.

...............WFO WILMINGTON COUNTY WARNING AREA...............

......COASTAL NC AND SC COUNTIES......

CITY           SKY/WX    TMP DP  RH WIND       PRES   REMARKS
WILMINGTON     FAIR      64  57  78 S6        29.84F
N MYRTLE BEACH FAIR      66  61  84 SW10      29.83F
MYRTLE BEACH   FAIR      66  61  84 SW6       29.85F

......INLAND NC AND SC COUNTIES.......

CITY           SKY/WX    TMP DP  RH WIND       PRES   REMARKS
LUMBERTON      FAIR      64  59  83 S5        29.82S
ELIZABETHTOWN  FAIR      62  56  81 MISG      29.83F
WHITEVILLE     NOT AVBL
FLORENCE       FAIR      68  55  63 NW10      29.84S
DARLINGTON     FAIR      65  55  70 N7        29.84F
KINGSTREE      CLOUDY    64  59  82 W7        29.85R
HARTSVILLE     CLOUDY    63  52  67 CALM      29.83F
BENNETTSVILLE  MOCLDY    66  59  77 NW5       29.85S
CONWAY         FAIR      61  59  94 CALM      29.85R
GEORGETOWN     FAIR      59  59 100 SW3       29.86S
MARION         FAIR      64  57  77 SW5       29.84S

....................REST OF NORTH CAROLINA......................

.........EASTERN NC.........

CITY           SKY/WX    TMP DP  RH WIND       PRES   REMARKS
CAPE HATTERAS  FAIR      69  65  86 S7        29.87F
JACKSONVILLE   FAIR      62  59  90 S3        29.85S
MOREHEAD CITY  FAIR      66  61  84 S6        29.86S
KENANSVILLE    FAIR      61  55  82 S3        29.83F
NEW BERN       FAIR      61  58  90 S3        29.86S
ELIZABETH CITY FAIR      60  55  83 E6        29.87F

.........CENTRAL NC.........

CITY           SKY/WX    TMP DP  RH WIND       PRES   REMARKS
RALEIGH DURHAM CLOUDY    61  61 100 VRB3      29.81S
ROCKY MOUNT    FAIR      66  57  72 SE7       29.80F
ROANOKE RAPIDS NOT AVBL
FAYETTEVILLE   FAIR      66  56  70 S8        29.81S
HOFFMAN        MOCLDY    62  57  83 NW10      29.83F

.........WESTERN NC.........

CITY           SKY/WX    TMP DP  RH WIND       PRES   REMARKS
CHARLOTTE      MOCLDY    56  56 100 N5        29.84R
GREENSBORO     LGT RAIN  57  56  96 CALM      29.83F
HICKORY        NOT AVBL
BOONE          NOT AVBL
ASHEVILLE      NOT AVBL

.....................REST OF SOUTH CAROLINA.....................

.........EASTERN SC.........

CITY           SKY/WX    TMP DP  RH WIND       PRES   REMARKS
CHARLESTON     MOCLDY    64  60  87 S3        29.84S
BEAUFORT MCAS  MOCLDY    69  66  90 SE5       29.83S
HILTON HEAD    MOCLDY    68  64  88 S8        29.84S

.........CENTRAL SC.........

CITY           SKY/WX    TMP DP  RH WIND       PRES   REMARKS
COLUMBIA       LGT RAIN  61  59  93 S7        29.82S
ORANGEBURG     LGT RAIN  64  55  72 NE3       29.83F
SUMTER SHAW    LGT RAIN  63  55  75 E3        29.82F

.........WESTERN SC.........

CITY           SKY/WX    TMP DP  RH WIND       PRES   REMARKS
GREENVILLE     NOT AVBL
ROCK HILL      MOCLDY    56  56 100 CALM      29.84R
ANDERSON       RAIN      57  54  89 W10       29.85R FOG
CLEMSON        NOT AVBL
GREENWOOD      CLOUDY    55  55 100 CALM      29.85S


...................COASTAL AND OFFSHORE REPORTS..................

................LOCAL PIERS AND NC RESERVE................


STATION/POSITION TIME  SKY/WX   TEMP    WIND        PRES    VSBY
                                AIR SEA DIR/SP/G
                 (UTC)          (F)     (DEG/KT/KT) (MB)    (MI)
JOHNY MRCER PIER 0248            66 65  210/  7/  8 1010.9F
NC RESRV MASNBRO NOT AVBL
OCEAN CREST PIER NOT AVBL
SPRINGMAID  PIER 0248                               1013.6F


................COASTAL AND OFFSHORE BUOYS................


STATION/POSITION TIME  SKY/WX   TEMP    WIND        PRES    VSBY
                                AIR SEA DIR/SP/G
                 (UTC)          (F)     (DEG/KT/KT) (MB)    (MI)
DIMNDSHOAL 41025 0300            74 71  180/ 14/ 17 1011.7
CAPE LOOKOUT     0300                   180/  3/  4 1011.5F
ONSLOW BAY 41036 NOT AVBL
ONSLOW BAY 41064 0208            69 68  180/  4/  6 1009.5R
ONSLOW BAY 41159 0300               67                N/A
WVE H/P(F/S)=  4/ 8 SWL H/P/D(F/S/D)=  2/100/11

MASNBO INL 41110 0300               65                N/A
WVE H/P(F/S)=  3/ 8

WILM HARBR 41108 0250               64                N/A
WVE H/P(F/S)=  2/ 8

27SE WRITB 41037 0208            67 66  190/  4/  8 1011.2S
FRYING PAN 41013 0300            70 70  210/  4/  6 1011.0
SUNST NRSH 41024 0208            66 65  220/  8/ 12 1010.7R
CAPRS NRSH 41029 0208            67 66  220/  4/  6 1011.3R
EDISTO     41004 0300               70  170/  4/  6 1010.7


..........OFFSHORE BUOYS BEYOND 100 NM OFFSHORE...........
.....IN A TRIANGLE---HAT TO BERMUDA TO BAHAMAS TO HAT.....


STATION/POSITION TIME  SKY/WX   TEMP    WIND        PRES    VSBY
                                AIR SEA DIR/SP/G
                 (UTC)          (F)     (DEG/KT/KT) (MB)    (MI)
150E HAT   41001 NOT AVBL
W BERMUDA  41048 0250               71  160/  6/  8 1017.5F
WVE H/P(F/S)=  5/ 8 SWL H/P/D(F/S/D)=  5/110/ 8

ATLANTIC S 41049 0250               76  120/ 10/ 14 1021.6F
WVE H/P(F/S)=  6/ 7 SWL H/P/D(F/S/D)=  5/ 80/ 7

E BAHAMAS  41046 0300            78 79  110/ 14/ 16 1018.7
NE BAHAMAS 41047 0300                   170/  8/ 10 1017.3
120E CANVRL41010 0300            75 76  190/ 12/ 14 1013.4

END



USA.gov is the U.S. government's official web portal to all federal, state and local government web resources and services.